Date,TemperatureHighF,TemperatureAvgF,TemperatureLowF,DewpointHighF,DewpointAvgF,DewpointLowF,HumidityHigh,HumidityAvg,HumidityLow,PressureMaxIn,PressureMinIn,WindSpeedMaxMPH,WindSpeedAvgMPH,GustSpeedMaxMPH,PrecipitationSumIn
2013-1-1,38.7,31.8,19.3,27.1,18.4,5.6,73,58,45,29.85,29.62,19,4,19,0.01
2013-1-2,32.0,20.5,10.4,16.3,9.1,-1.9,70,61,50,30.02,29.81,10,3,14,0.00
2013-1-3,27.7,16.0,6.1,10.5,1.2,-3.9,67,53,32,30.05,29.91,10,2,10,0.00
2013-1-4,39.2,30.3,19.8,24.7,19.7,10.7,76,65,50,29.91,29.71,14,5,14,0.01
2013-1-5,44.4,33.9,25.2,25.3,19.9,14.8,74,57,32,30.19,29.76,11,2,19,0.00
2013-1-6,45.0,34.7,25.5,28.9,24.7,17.1,83,67,52,30.15,29.85,7,2,11,0.00
2013-1-7,41.7,33.9,26.2,30.1,26.0,22.3,92,73,57,30.32,29.87,5,1,11,0.00
2013-1-8,47.8,38.9,31.6,29.6,27.9,25.6,86,66,47,30.29,30.17,11,2,16,0.00
2013-1-9,45.0,37.2,26.2,35.5,29.2,22.1,88,73,52,30.32,29.90,8,2,16,0.00
2013-1-10,48.4,42.0,33.4,28.4,25.0,22.4,65,51,38,30.45,29.93,11,2,24,0.00
2013-1-11,42.4,36.3,27.9,38.4,28.9,20.4,95,74,63,30.44,30.16,3,0,8,0.07
2013-1-12,46.6,43.4,39.6,43.0,41.3,38.3,100,92,83,30.16,30.05,4,0,9,0.01
2013-1-13,52.5,47.4,43.0,49.5,46.4,43.0,100,96,89,30.07,29.91,6,0,8,0.00
2013-1-14,64.8,53.2,42.1,53.2,43.2,27.2,93,71,43,30.16,29.76,9,1,15,0.00
2013-1-15,42.8,39.0,34.5,28.4,26.1,22.9,66,59,54,30.23,30.13,0,0,2,0.00
2013-1-16,35.1,33.5,30.7,32.3,29.2,21.6,93,85,58,30.17,29.73,0,0,3,0.13
2013-1-17,43.5,35.3,29.5,32.9,26.5,10.8,92,71,44,30.01,29.74,8,0,11,0.22
2013-1-18,29.5,23.2,17.2,10.8,-5.7,-16.2,45,28,19,30.37,29.98,9,0,20,0.00
2013-1-19,51.6,39.2,24.6,33.5,21.2,-0.2,74,49,31,30.31,29.80,8,1,17,0.00
2013-1-20,55.6,42.7,29.3,34.2,24.9,7.0,72,51,23,29.83,29.44,11,2,24,0.00
2013-1-21,32.4,25.9,21.6,18.8,3.8,-6.9,80,42,21,30.02,29.70,9,0,19,0.00
2013-1-22,27.7,21.5,14.0,18.7,5.1,-10.7,83,53,23,29.99,29.66,5,0,17,0.00
2013-1-23,18.9,11.9,6.6,-1.0,-16.7,-25.0,51,27,18,30.05,29.97,8,0,17,0.00
2013-1-24,20.8,11.2,2.8,-11.9,-20.0,-24.7,28,22,18,30.11,29.95,8,0,21,0.00
2013-1-25,26.2,17.0,8.8,4.6,-15.3,-22.7,55,22,18,30.19,29.99,9,0,19,0.00
2013-1-26,28.0,18.3,12.4,7.7,-3.0,-18.6,70,43,18,30.13,29.92,5,0,11,0.00
2013-1-27,32.5,21.4,13.6,-1.3,-6.3,-14.2,50,31,18,30.38,30.13,3,0,16,0.00
2013-1-28,31.5,25.1,17.6,27.9,6.5,-13.7,90,50,19,30.37,29.94,0,0,2,0.00
2013-1-29,35.8,31.0,25.9,31.6,26.0,21.5,89,82,72,30.11,29.93,0,0,2,0.01
2013-1-30,60.8,49.3,34.0,56.7,47.1,31.3,100,92,84,30.08,29.40,8,0,16,0.24
2013-1-31,61.2,48.2,31.3,58.8,36.6,12.0,94,67,28,29.50,28.89,17,3,27,0.24
2013-2-1,35.6,29.3,23.2,16.1,3.3,-4.9,54,33,21,29.98,29.50,8,1,18,0.00
2013-2-2,33.6,25.3,18.0,7.3,0.6,-8.0,49,34,21,30.16,29.96,2,0,9,0.00
2013-2-3,28.2,25.5,22.8,18.5,16.1,7.0,78,68,42,29.97,29.63,1,0,4,0.00
2013-2-4,32.5,25.7,21.6,17.6,5.6,-5.8,74,45,22,29.85,29.62,11,1,21,0.00
2013-2-5,30.0,25.8,21.6,24.2,8.1,-0.6,84,48,29,29.95,29.84,2,0,5,0.00
2013-2-6,41.0,30.7,25.0,26.5,17.5,-1.4,83,61,28,30.20,29.84,6,0,12,0.05
2013-2-7,31.5,24.4,18.0,16.7,-4.3,-11.2,61,29,17,31.17,30.20,4,0,9,0.00
2013-2-8,34.2,30.7,21.4,30.0,25.3,16.7,94,81,61,30.41,29.51,14,1,27,0.00
2013-2-9,21.9,18.3,14.0,18.4,13.5,4.5,87,81,65,30.08,29.45,10,1,24,0.00
2013-2-10,41.4,23.0,11.1,15.1,6.4,-1.6,77,52,20,30.30,30.08,0,0,4,0.07
2013-2-11,43.5,32.9,17.4,42.2,28.5,10.5,97,84,60,30.26,29.51,3,0,11,0.26
2013-2-12,45.7,38.9,35.2,35.1,28.1,24.0,93,66,48,29.78,29.50,11,1,18,0.01
2013-2-13,44.1,36.3,30.0,27.4,23.6,20.4,77,60,43,29.78,29.61,5,0,8,0.00
2013-2-14,46.6,36.9,32.0,27.2,22.4,16.3,77,56,32,29.91,29.61,2,0,8,0.00
2013-2-15,51.1,40.0,32.4,34.8,30.3,21.4,87,69,46,29.92,29.82,4,0,11,0.00
2013-2-16,39.7,35.0,31.3,31.9,27.5,17.5,90,75,53,29.86,29.62,2,0,7,0.01
2013-2-17,32.7,22.8,17.1,18.3,8.6,-5.7,82,57,33,29.62,29.26,12,2,34,0.00
2013-2-18,32.0,23.1,15.3,-0.1,-4.2,-9.3,43,30,19,30.06,29.55,11,1,25,0.00
2013-2-19,47.1,36.3,23.2,42.1,20.3,-4.7,95,56,26,30.07,29.48,5,0,10,0.35
2013-2-20,43.5,33.5,27.0,42.2,19.8,7.2,95,59,35,29.68,29.44,11,2,21,0.00
2013-2-21,33.3,27.7,25.0,12.9,10.1,5.9,55,47,35,30.07,29.67,8,1,18,0.00
2013-2-22,42.1,32.7,24.6,24.0,18.9,12.2,66,57,42,30.30,30.08,2,0,6,0.00
2013-2-23,39.9,36.5,33.4,33.5,28.1,22.9,88,72,63,30.26,29.85,2,0,8,0.20
2013-2-24,39.2,35.5,31.3,37.7,32.9,28.2,95,90,87,29.85,29.61,2,0,11,0.50
2013-2-25,44.6,35.4,30.4,30.7,27.7,21.8,89,74,47,30.16,29.81,0,0,2,0.11
2013-2-26,46.9,37.1,29.1,33.5,29.2,26.0,90,74,54,30.26,30.09,2,0,9,0.00
2013-2-27,42.3,40.7,39.0,40.1,37.7,31.3,95,89,73,30.10,29.45,11,1,22,1.55
2013-2-28,48.9,39.7,34.7,39.3,34.5,31.7,96,82,61,29.57,29.44,0,0,2,0.00
2013-3-1,41.7,37.7,35.4,32.2,29.6,25.8,82,73,63,29.59,29.44,0,0,3,0.00
2013-3-2,46.9,38.1,32.2,30.9,26.6,23.8,73,63,51,29.59,29.53,0,0,3,0.00
2013-3-3,45.0,36.8,32.4,33.0,27.6,23.8,80,69,61,29.56,29.47,2,0,8,0.00
2013-3-4,41.9,34.9,31.5,28.0,22.8,18.9,82,61,49,29.64,29.47,9,0,17,0.00
2013-3-5,45.5,37.4,31.6,33.0,26.9,20.8,84,66,52,29.99,29.63,2,0,8,0.00
2013-3-6,41.4,38.2,35.8,35.5,31.8,26.0,88,78,64,30.04,29.96,11,1,22,0.11
2013-3-7,37.2,33.9,32.0,31.0,29.1,26.0,88,82,64,29.99,29.90,5,0,22,0.11
2013-3-8,41.9,35.1,30.6,30.2,27.3,22.6,90,75,50,30.06,29.84,5,0,14,0.51
2013-3-9,46.6,36.9,28.9,31.0,25.6,19.9,87,64,46,30.27,30.05,2,0,11,0.21
2013-3-10,45.3,35.4,26.6,33.0,28.1,22.2,88,75,57,30.33,30.24,2,0,6,0.00
2013-3-11,50.9,42.3,36.0,39.0,33.8,29.3,89,72,56,30.25,30.07,1,0,5,0.06
2013-3-12,53.1,46.1,41.5,51.8,43.6,38.5,96,91,85,30.08,29.64,2,0,9,0.15
2013-3-13,54.3,45.9,36.3,51.1,31.1,14.6,96,60,26,29.69,29.60,3,0,9,0.00
2013-3-14,39.6,33.4,23.7,22.1,12.1,-0.2,60,42,27,29.73,29.61,5,0,14,0.00
2013-3-15,43.2,30.8,19.8,24.8,7.4,-3.4,65,39,18,29.77,29.54,5,0,11,0.00
2013-3-16,41.4,34.5,28.2,24.1,11.0,-0.4,64,39,21,29.80,29.57,5,0,8,0.00
2013-3-17,39.6,31.3,24.3,13.1,3.8,-8.0,55,33,18,30.24,29.80,16,1,16,0.00
2013-3-18,37.4,28.8,18.9,26.1,4.6,-9.4,84,37,20,30.38,30.18,7,0,7,0.00
2013-3-19,36.9,33.6,27.7,33.9,30.8,22.5,92,89,81,30.18,29.50,20,2,20,0.63
2013-3-20,38.7,31.7,25.7,22.6,19.5,15.9,81,62,43,29.73,29.59,16,2,16,0.06
2013-3-21,39.2,32.0,26.2,28.1,20.1,13.7,86,62,41,29.73,29.52,2,0,2,0.02
2013-3-22,44.4,34.5,29.7,26.6,19.4,11.1,85,55,31,30.47,29.51,11,1,11,0.06
2013-3-23,44.1,36.5,32.0,21.9,18.2,14.1,55,48,34,29.68,29.53,20,5,20,0.00
2013-3-24,50.9,38.8,32.4,28.0,23.1,18.1,64,54,34,29.72,29.65,12,3,12,0.00
2013-3-25,49.5,39.8,38.7,35.1,29.1,27.6,70,65,60,29.69,29.45,11,4,11,0.00
2013-3-26,52.2,42.8,34.7,29.9,23.1,12.2,68,48,24,29.69,29.45,10,5,10,0.02
2013-3-27,56.5,42.9,32.2,32.0,23.4,17.3,72,48,26,29.78,29.65,14,3,14,0.00
2013-3-28,51.1,42.7,36.9,33.4,31.4,23.2,85,65,39,29.93,29.77,8,2,8,0.01
2013-3-29,61.0,45.3,36.5,38.6,32.0,25.1,72,60,28,29.96,29.88,8,2,8,0.02
2013-3-30,55.4,44.6,34.0,33.4,29.4,16.2,75,57,22,30.02,29.93,10,2,10,0.00
2013-3-31,58.3,43.4,28.8,36.5,28.4,17.6,83,59,24,30.04,29.69,21,4,21,0.12
2013-4-1,61.2,46.5,35.6,45.1,34.6,4.2,92,66,25,29.70,29.41,28,8,28,0.24
2013-4-2,40.5,34.7,29.8,12.7,6.7,-1.2,45,31,20,29.85,29.70,34,14,34,0.15
2013-4-3,47.7,37.3,30.4,13.1,8.0,0.0,45,31,17,30.06,29.83,32,14,32,0.01
2013-4-4,56.3,41.6,29.7,28.8,15.5,4.2,52,37,16,30.21,29.97,17,7,17,0.00
2013-4-5,57.6,45.4,39.0,37.7,26.9,15.2,64,50,23,29.97,29.55,25,7,25,0.00
2013-4-6,48.2,38.1,31.1,24.5,8.9,-2.5,64,32,17,30.26,29.80,27,7,27,0.00
2013-4-7,53.4,42.6,29.1,38.0,29.0,15.9,83,61,25,30.26,29.93,31,8,31,0.00
2013-4-8,63.7,50.7,44.6,40.8,38.1,31.6,81,64,34,30.04,29.86,14,5,14,0.00
2013-4-9,72.5,50.9,43.2,49.2,40.8,36.3,86,70,36,30.03,29.77,21,4,21,0.07
2013-4-10,55.8,47.4,44.1,43.2,40.4,38.0,87,77,63,29.95,29.81,11,3,11,0.51
2013-4-11,52.5,45.0,42.1,42.2,37.4,28.4,91,76,47,30.07,29.76,16,4,16,0.09
2013-4-12,42.6,39.2,36.9,35.3,32.2,28.2,87,76,63,30.11,29.71,23,8,23,0.69
2013-4-13,52.0,40.5,35.1,38.1,33.7,30.1,87,77,57,29.85,29.68,24,5,24,0.15
2013-4-14,55.6,47.0,40.5,37.5,31.7,22.9,85,58,31,30.11,29.84,23,5,23,0.00
2013-4-17,68.0,57.2,45.5,39.3,32.8,21.4,72,43,19,30.07,29.90,15,4,15,0.00
2013-4-18,56.5,49.6,42.1,40.7,34.9,22.4,79,58,27,30.19,29.89,17,6,17,0.00
2013-4-19,75.4,61.8,48.9,58.8,53.1,40.7,94,74,54,29.90,29.40,27,10,27,0.00
2013-4-20,64.2,54.0,45.0,59.8,39.6,23.6,90,62,33,29.94,29.34,22,8,22,0.47
2013-4-21,52.9,42.7,34.5,30.7,23.1,10.0,74,47,22,30.42,29.94,19,4,19,0.00
2013-4-22,50.5,42.3,34.3,35.4,31.1,23.2,78,65,37,30.52,30.34,17,6,17,0.00
2013-4-23,42.4,41.2,39.0,39.1,36.2,30.4,89,82,67,30.34,29.85,25,7,25,0.20
2013-4-24,65.8,51.7,42.1,49.4,43.1,38.7,89,74,51,29.85,29.54,24,8,24,0.08
2013-4-25,66.9,54.7,43.9,49.3,37.3,17.6,81,56,16,30.01,29.57,23,6,23,0.04
2013-4-26,54.5,48.1,42.6,39.8,35.2,30.1,81,62,43,30.18,30.00,16,5,16,0.00
2013-4-27,60.3,50.7,40.5,40.3,34.9,20.8,91,58,24,30.17,30.05,11,3,11,0.00
2013-4-28,59.7,52.4,41.9,42.5,38.2,30.0,83,59,43,30.09,29.98,11,3,11,0.00
2013-4-29,63.9,55.7,45.5,46.9,36.0,13.4,85,52,18,30.02,29.94,11,4,11,0.00
2013-4-30,65.7,55.7,45.0,43.0,27.9,12.8,77,41,14,30.08,30.00,9,2,9,0.00
2013-5-1,61.0,52.5,41.0,43.8,39.4,29.0,85,63,30,30.22,30.12,7,2,7,0.00
2013-5-2,72.0,54.1,44.2,46.1,41.6,33.4,92,67,25,30.23,30.12,15,4,15,0.00
2013-5-3,57.7,50.2,43.0,42.8,39.8,37.7,83,68,56,30.27,30.12,21,4,21,0.00
2013-5-4,53.1,46.9,40.6,43.2,38.7,36.4,90,73,62,30.12,30.07,13,3,13,0.00
2013-5-5,55.6,47.3,37.9,42.2,38.9,34.9,89,73,56,30.08,30.01,11,3,11,0.00
2013-5-6,54.9,48.2,42.1,47.2,42.5,39.1,90,81,67,30.04,29.91,11,2,11,0.00
2013-5-7,66.9,58.3,45.3,53.6,48.9,43.1,92,72,50,29.92,29.85,11,2,11,0.00
2013-5-8,64.4,57.0,52.7,54.5,51.5,49.3,91,82,69,29.98,29.81,8,2,8,0.17
2013-5-9,62.1,56.4,53.1,55.3,52.8,49.6,92,88,74,29.81,29.64,8,1,8,0.57
2013-5-10,70.5,59.3,54.3,56.7,52.5,49.7,91,79,61,29.69,29.62,9,2,9,0.01
2013-5-11,71.6,63.4,58.5,57.8,54.7,50.5,84,74,60,29.65,29.44,21,4,21,0.04
2013-5-12,61.3,24.5,0.0,56.3,55.1,28.4,85,33,41,30.11,29.36,9,0,9,0.09
2013-5-13,59.9,50.9,42.8,32.2,28.5,21.6,64,43,26,30.34,30.11,21,6,21,0.00
2013-5-14,59.9,50.9,41.9,35.2,29.2,21.8,68,45,27,30.36,30.27,16,4,16,0.00
2013-5-15,64.4,53.8,39.4,49.2,37.6,21.3,79,57,23,30.37,29.99,16,3,16,0.00
2013-5-16,80.8,67.9,51.8,48.8,35.8,22.0,84,39,12,30.12,29.92,31,8,31,0.06
2013-5-17,67.6,58.2,51.4,44.6,41.4,38.4,70,54,38,30.52,30.12,16,3,16,0.00
2013-5-18,70.0,57.5,45.1,49.0,44.8,37.8,90,65,33,30.62,30.52,11,2,11,0.00
2013-5-19,65.1,54.7,47.5,52.3,48.1,45.1,96,79,59,30.67,30.55,13,2,13,0.09
2013-5-20,81.5,63.7,54.0,60.8,56.2,51.9,95,78,49,30.55,30.23,14,2,14,0.13
2013-5-21,66.4,56.6,50.7,57.4,52.2,47.1,94,86,69,30.36,30.21,18,3,18,0.00
2013-5-22,59.2,53.6,49.8,52.5,49.3,46.9,92,86,77,30.39,30.20,21,2,21,0.39
2013-5-23,76.8,62.0,52.7,63.9,56.0,50.2,92,82,62,30.25,30.13,15,2,15,0.04
2013-5-24,70.9,62.3,52.2,62.1,57.9,48.4,91,85,74,30.13,29.97,16,2,16,0.80
2013-5-25,53.2,48.5,42.3,48.4,44.5,37.3,89,86,80,30.12,29.99,18,6,18,0.37
2013-5-26,58.6,48.1,39.6,41.5,37.9,35.7,87,69,48,30.39,30.00,21,6,21,0.08
2013-5-27,72.0,58.1,44.4,45.1,36.3,22.8,79,49,18,30.49,30.38,17,4,17,0.00
2013-5-28,68.4,56.6,44.6,49.7,45.3,35.2,89,68,32,30.56,30.48,8,2,8,0.00
2013-5-29,65.1,59.1,55.6,58.1,54.0,48.8,93,84,71,30.51,30.29,6,1,6,0.73
2013-5-30,87.4,75.9,60.8,64.3,61.3,57.9,91,63,43,30.38,30.29,16,4,16,0.00
2013-5-31,94.6,82.1,67.3,65.3,62.0,59.3,79,52,34,30.39,30.22,12,3,12,0.00
2013-6-1,93.2,81.9,70.2,64.4,61.8,58.4,67,52,35,30.27,30.15,12,3,12,0.00
2013-6-2,88.2,77.6,69.3,65.5,62.6,59.1,77,61,45,30.18,30.03,23,4,23,0.00
2013-6-3,75.7,69.1,63.7,64.2,60.1,44.2,92,74,46,30.16,30.06,9,2,9,0.26
2013-6-4,72.0,63.1,53.2,46.4,43.4,40.3,63,49,35,30.41,30.13,19,3,19,0.00
2013-6-5,73.9,62.3,51.8,51.6,45.9,38.8,74,56,32,30.50,30.40,11,2,11,0.00
2013-6-6,71.8,62.9,55.2,53.2,49.3,45.5,77,62,47,30.50,30.42,9,1,9,0.00
2013-6-7,58.1,55.4,53.6,54.7,51.8,48.5,93,88,77,30.44,30.13,14,3,14,2.55
2013-6-8,79.2,63.7,52.9,61.0,55.0,50.9,93,75,53,30.31,29.91,21,5,21,0.61
2013-6-9,82.0,69.6,58.1,56.5,54.2,48.9,88,60,37,30.47,30.30,15,2,15,0.00
2013-6-10,69.6,61.7,57.0,56.2,54.0,51.8,95,77,61,30.54,30.34,11,2,11,0.44
2013-6-11,63.0,57.5,54.3,56.6,53.8,50.1,95,88,73,30.35,29.88,15,3,15,1.43
2013-6-12,71.2,61.1,55.0,55.9,53.2,50.5,94,76,53,30.12,29.87,20,3,20,0.09
2013-6-13,71.8,58.8,53.1,55.0,51.0,48.6,90,76,51,30.12,30.00,11,1,11,0.57
2013-6-14,72.9,60.5,51.4,55.1,51.1,46.2,91,73,51,30.07,29.96,16,3,16,0.97
2013-6-15,80.4,67.9,57.6,53.0,47.3,37.2,78,51,23,30.24,30.07,14,2,14,0.00
2013-6-16,77.4,68.7,58.3,59.4,51.2,45.3,73,55,37,30.25,30.02,9,3,9,0.00
2013-6-17,86.7,70.2,61.5,60.5,57.4,52.7,93,67,33,30.21,30.07,13,3,13,0.54
2013-6-18,74.3,63.2,57.9,59.6,56.5,53.2,92,80,56,30.26,30.19,15,1,15,0.25
2013-6-19,74.1,63.6,56.5,55.4,49.8,41.0,91,63,33,30.45,30.22,17,3,17,0.04
2013-6-20,75.0,65.4,52.0,56.5,52.2,47.6,91,64,43,30.57,30.45,8,2,8,0.00
2013-6-21,85.5,70.4,60.6,62.3,56.6,50.4,84,63,44,30.56,30.50,8,2,8,0.00
2013-6-22,85.5,73.8,63.5,61.7,57.2,53.4,73,57,41,30.53,30.42,13,2,13,0.00
2013-6-23,90.7,78.2,66.2,67.7,61.3,53.4,68,57,45,30.47,30.28,11,3,11,0.00
2013-6-24,95.4,80.3,69.1,69.6,66.7,63.3,93,66,42,30.32,30.16,30,4,30,0.48
2013-6-25,91.2,79.8,69.6,68.3,65.1,62.6,92,63,41,30.22,30.02,11,4,11,0.00
2013-6-26,86.9,73.0,63.5,68.7,65.3,61.8,96,78,49,30.17,30.02,10,1,10,0.39
2013-6-27,71.8,63.8,60.4,62.3,60.7,58.8,96,90,72,30.19,30.08,8,2,8,0.04
2013-6-28,79.5,69.3,60.1,69.5,64.4,58.4,96,85,66,30.09,29.81,12,2,12,0.40
2013-6-29,82.8,73.8,67.6,69.7,65.2,62.1,93,76,55,30.03,29.83,14,3,14,0.00
2013-6-30,84.4,75.7,69.3,69.1,66.2,64.3,88,73,58,30.25,30.03,11,2,11,0.00
2013-7-1,80.1,72.9,70.3,70.5,68.5,64.5,93,86,72,30.40,30.24,14,1,14,0.38
2013-7-2,81.1,69.4,59.9,70.1,63.6,55.7,90,82,67,30.53,30.38,12,2,12,0.01
2013-7-3,90.0,74.4,59.5,69.3,63.9,56.6,91,71,50,30.52,30.42,12,3,12,0.00
2013-7-4,93.7,83.3,73.8,70.9,69.2,66.8,86,64,46,30.51,30.39,11,4,11,0.00
2013-7-5,95.0,85.4,76.8,70.9,69.5,67.4,78,60,45,30.46,30.33,11,4,11,0.00
2013-7-6,92.7,83.9,77.2,70.7,67.2,60.3,78,58,43,30.37,30.26,14,4,14,0.00
2013-7-7,92.5,80.9,73.4,71.6,64.7,59.3,80,59,41,30.32,30.20,8,1,8,0.00
2013-7-8,86.0,75.1,64.8,72.2,66.7,60.0,89,76,60,30.38,30.21,11,3,11,0.00
2013-7-9,74.5,67.4,64.4,64.4,61.6,59.8,92,82,69,30.42,30.36,9,2,9,0.00
2013-7-10,85.8,72.9,65.7,71.1,66.7,61.2,92,82,58,30.40,30.10,17,2,17,0.00
2013-7-11,81.1,75.2,70.3,71.1,69.0,66.9,90,81,65,30.23,30.08,8,1,11,0.04
2013-7-12,77.7,70.1,66.4,67.0,58.8,54.2,92,68,48,30.52,30.23,11,3,19,0.04
2013-7-13,76.1,69.2,65.7,64.7,61.5,58.2,88,77,64,30.63,30.29,4,1,10,0.00
2013-7-14,90.1,77.0,66.9,71.5,68.1,64.5,95,76,47,30.30,30.20,4,0,11,0.00
2013-7-15,92.3,80.5,71.1,71.8,67.7,63.5,92,67,45,30.19,30.08,4,0,7,0.00
2013-7-16,94.5,80.4,71.1,69.8,65.9,62.9,79,62,44,30.16,30.09,4,0,11,0.00
2013-7-17,89.1,80.7,70.9,70.6,68.0,64.2,86,66,52,30.18,29.97,4,1,11,0.00
2013-7-18,90.0,82.5,77.2,72.1,68.8,63.6,78,64,49,30.01,29.93,7,1,11,0.00
2013-7-19,96.8,91.0,82.4,74.5,71.7,65.1,66,54,42,29.97,29.69,8,4,16,0.00
2013-7-20,93.4,84.7,77.0,73.7,70.2,61.8,76,62,44,29.79,29.62,14,2,21,0.06
2013-7-21,79.3,73.5,68.9,67.1,62.5,57.5,91,69,53,29.99,29.79,5,1,11,0.00
2013-7-22,77.9,71.3,66.6,68.0,65.6,62.5,96,83,62,30.02,29.89,4,1,11,0.00
2013-7-23,80.2,71.6,67.8,74.3,69.4,66.5,100,93,76,29.89,29.53,4,0,7,0.44
2013-7-24,87.8,76.7,67.1,73.7,65.3,52.9,96,70,45,29.95,29.58,8,1,12,0.00
2013-7-25,66.9,61.6,59.7,59.2,53.8,49.2,95,76,60,30.11,29.95,8,2,14,0.25
2013-7-26,70.7,64.8,60.4,66.5,61.9,59.0,96,90,77,30.06,29.91,8,2,19,1.00
2013-7-27,82.9,72.4,61.5,65.7,61.4,57.0,89,70,53,30.05,29.99,4,1,11,0.00
2013-7-28,75.0,68.8,65.3,67.4,64.8,61.6,95,87,73,30.02,29.97,8,1,11,0.00
2013-7-29,79.2,70.1,65.7,69.0,65.9,62.0,96,87,58,30.04,29.96,5,0,10,0.04
2013-7-30,81.9,71.6,63.0,66.7,61.3,55.4,97,72,41,30.09,30.02,7,1,11,0.01
2013-7-31,80.8,71.2,62.1,63.7,59.1,54.5,84,67,43,30.13,30.04,5,0,9,0.00
2013-8-1,80.6,72.3,64.0,63.8,61.6,59.1,91,70,53,30.04,29.90,5,1,9,0.00
2013-8-2,86.0,74.3,64.0,67.5,61.2,54.8,96,67,41,29.87,29.77,13,1,23,0.52
2013-8-3,79.5,71.7,65.5,64.3,60.6,58.3,94,69,52,29.86,29.76,8,2,12,0.01
2013-8-4,83.5,69.4,61.7,62.4,56.1,52.4,88,64,38,29.88,29.76,11,0,15,0.11
2013-8-5,76.6,65.7,56.8,53.3,46.9,33.7,79,54,24,30.05,29.87,9,1,13,0.00
2013-8-6,76.5,65.5,52.9,59.1,51.0,45.6,86,61,36,30.15,30.04,4,0,8,0.00
2013-8-7,74.5,62.3,58.1,58.1,55.7,50.7,92,81,51,30.18,29.72,4,0,8,0.00
2013-8-8,81.1,71.7,65.5,68.3,63.1,53.6,87,75,65,29.92,29.77,5,1,9,0.02
2013-8-9,74.7,72.0,68.9,73.2,69.3,66.9,97,91,85,30.13,29.75,4,1,8,1.37
2013-8-10,84.6,74.5,63.9,70.9,60.7,52.3,95,65,37,30.21,29.99,10,1,13,0.00
2013-8-11,81.7,68.2,55.6,57.4,54.0,48.6,91,63,40,30.28,30.21,8,0,12,0.00
2013-8-12,84.7,71.0,59.2,62.3,57.1,50.2,93,64,35,30.23,30.12,4,0,8,0.00
2013-8-13,73.9,68.1,64.4,65.8,62.6,60.3,91,83,67,30.13,29.88,2,0,5,0.00
2013-8-14,140.0,67.9,61.3,62.4,53.8,48.0,88,62,42,30.16,29.86,12,2,17,0.01
2013-8-15,79.5,67.5,56.5,52.8,50.0,44.7,79,56,33,30.32,30.16,8,1,57,0.00
2013-8-16,82.0,68.8,56.8,57.1,52.8,47.3,81,59,33,30.40,30.30,8,1,11,0.00
2013-8-17,69.4,66.6,58.5,57.2,56.1,53.8,85,69,65,30.45,30.40,2,0,4,0.00
2013-8-18,68.9,68.9,68.9,56.7,56.7,56.7,65,65,65,30.45,30.45,0,0,2,0.00
2013-8-19,68.9,68.9,68.9,56.7,56.7,56.7,65,65,65,30.45,30.45,0,0,2,0.00
2013-8-20,68.9,68.9,68.9,56.7,56.7,56.7,65,65,65,30.45,30.45,0,0,2,0.00
2013-8-21,68.9,68.9,68.9,56.7,56.7,56.7,65,65,65,30.45,30.45,0,0,2,0.00
2013-8-22,81.5,71.6,68.9,68.7,60.1,56.2,85,67,55,30.45,29.88,6,1,9,0.00
2013-8-23,80.8,71.3,62.1,68.0,59.2,52.7,88,67,43,30.19,29.88,9,1,14,0.00
2013-8-24,75.4,66.8,56.3,53.3,46.1,39.5,76,50,31,30.38,30.19,7,1,12,0.00
2013-8-25,79.7,72.0,66.2,57.9,48.1,42.5,69,44,34,30.37,29.76,3,1,6,0.00
2013-8-26,83.5,73.2,66.6,64.7,59.9,53.9,74,63,50,29.77,29.45,8,2,13,0.00
2013-8-27,81.0,72.2,65.1,67.6,64.9,62.6,96,79,58,29.48,29.41,6,0,10,0.00
2013-8-28,77.9,66.3,60.8,65.5,62.8,60.0,100,89,63,29.57,29.45,8,1,12,0.00
2013-8-29,66.4,63.7,62.1,64.6,60.2,56.0,100,88,78,29.66,29.54,9,2,15,0.01
2013-8-30,80.6,65.2,62.2,66.9,58.7,56.2,83,80,55,30.37,29.63,4,0,4,0.00
2013-8-31,82.0,74.3,69.6,72.1,68.9,65.5,95,84,69,29.94,29.88,3,1,8,0.13
2013-9-1,78.4,72.7,68.9,72.0,69.2,56.2,96,89,55,30.32,29.89,4,1,6,0.20
2013-9-2,82.6,72.1,68.7,72.7,69.2,65.8,100,91,69,29.93,29.77,3,0,5,0.60
2013-9-3,82.8,74.2,66.9,70.8,66.2,55.8,96,77,55,29.85,29.73,6,1,10,0.01
2013-9-4,82.8,70.9,60.3,58.5,55.0,51.4,84,59,37,29.96,29.84,8,2,11,0.00
2013-9-5,69.6,63.2,52.7,60.5,54.7,46.7,93,74,61,30.19,29.90,8,1,13,0.04
2013-9-6,72.5,58.8,46.4,49.7,42.8,33.7,85,58,29,30.28,30.13,6,0,8,0.00
2013-9-7,82.9,66.4,51.8,55.1,47.6,41.1,75,53,26,30.14,29.89,5,1,8,0.00
2013-9-8,73.4,64.3,52.9,55.8,50.1,39.3,71,61,36,30.23,29.87,9,2,18,0.02
2013-9-9,71.4,58.9,45.9,50.4,44.0,35.3,85,60,33,30.37,30.22,5,1,8,0.00
2013-9-10,75.7,67.2,59.0,67.7,59.9,48.8,92,78,68,30.29,30.16,6,1,11,0.08
2013-9-11,98.1,80.5,68.0,73.2,69.1,65.5,97,73,36,30.20,30.06,7,1,12,0.00
2013-9-12,87.6,77.9,66.6,71.3,68.3,63.1,97,73,56,30.09,29.80,8,2,15,0.85
2013-9-13,79.0,67.4,59.2,68.3,63.7,54.2,100,89,63,29.88,29.70,6,0,10,0.25
2013-9-14,69.8,61.2,54.9,55.8,52.7,50.5,86,74,58,30.19,29.88,5,0,8,0.00
2013-9-15,75.7,60.6,49.1,54.6,49.5,44.7,100,70,36,30.29,30.18,5,1,8,0.00
2013-9-16,70.7,59.6,49.3,53.6,48.5,38.9,76,67,54,30.38,30.14,6,1,13,0.00
2013-9-17,65.3,51.5,41.5,45.3,38.7,31.8,89,64,36,30.56,30.38,11,2,17,0.00
2013-9-18,78.4,59.1,43.3,52.0,43.8,30.7,95,62,21,30.46,30.26,4,0,8,0.00
2013-9-19,74.3,60.5,49.3,56.1,51.3,46.2,97,73,49,30.26,30.17,3,0,8,0.00
2013-9-20,73.8,60.4,51.1,59.0,55.6,50.8,100,85,60,30.22,30.14,4,0,8,0.00
2013-9-21,76.6,65.3,54.3,63.0,58.8,53.3,100,81,56,30.17,29.87,8,1,11,0.00
2013-9-22,74.5,65.0,53.8,65.6,56.0,44.0,96,74,47,29.95,29.75,8,2,12,0.31
2013-9-23,66.4,53.4,46.4,50.7,41.6,39.1,78,65,45,30.05,29.92,6,1,14,0.00
2013-9-24,67.8,52.7,43.0,46.0,41.5,38.5,86,68,41,30.00,29.84,9,1,16,0.00
2013-9-25,67.1,54.8,45.3,49.4,45.9,43.4,93,73,48,30.00,29.90,6,0,11,0.00
2013-9-26,68.9,57.4,52.2,51.5,48.0,44.4,87,71,50,30.15,30.00,7,1,11,0.00
2013-9-27,67.3,59.0,52.0,51.6,49.1,45.7,88,71,51,30.28,30.15,9,2,14,0.00
2013-9-28,72.9,58.0,49.6,57.2,52.4,48.7,100,84,51,30.35,30.27,6,1,10,0.00
2013-9-29,68.0,54.4,48.9,54.6,50.2,44.8,100,87,50,30.29,30.14,4,0,10,0.00
2013-9-30,69.1,53.8,45.9,54.5,50.0,45.1,100,88,53,30.16,29.99,4,0,7,0.00
2013-10-1,79.9,59.7,48.2,55.2,51.3,48.2,100,77,40,29.99,29.87,8,0,10,0.01
2013-10-2,81.7,67.9,55.4,59.9,56.2,52.4,96,68,45,29.96,29.83,9,2,13,0.00
2013-10-3,81.5,65.1,56.3,56.4,51.5,38.4,87,65,24,30.10,29.95,4,0,8,0.00
2013-10-4,64.0,58.9,53.1,58.8,54.5,49.2,100,85,68,30.11,30.05,4,0,8,0.17
2013-10-5,67.6,60.9,57.4,58.5,56.7,53.9,100,87,66,30.15,30.08,4,0,7,0.00
2013-10-6,59.0,56.8,54.1,57.3,55.0,52.3,100,94,88,30.26,30.14,7,1,12,0.38
2013-10-7,76.5,66.8,58.3,68.1,62.9,55.3,100,88,72,30.16,29.84,11,2,18,0.05
2013-10-8,67.5,58.1,49.3,55.5,44.9,39.8,80,63,41,30.40,29.91,8,2,15,0.00
2013-10-9,61.0,51.2,43.7,47.1,43.6,40.4,96,76,55,30.50,30.39,5,1,11,0.00
2013-10-10,62.6,52.5,43.9,52.0,48.3,43.1,100,86,67,30.39,30.21,5,1,8,0.00
2013-10-11,70.3,57.3,50.9,54.0,47.8,19.6,100,76,20,30.21,30.13,7,1,11,0.00
2013-10-12,60.4,55.3,50.0,56.3,51.6,47.5,100,88,78,30.42,30.17,8,2,14,0.00
2013-10-13,63.7,52.0,43.3,49.7,45.8,42.0,96,80,54,30.48,30.40,5,1,11,0.00
2013-10-14,64.9,50.1,37.6,50.4,44.2,37.6,100,82,49,30.43,30.28,2,0,4,0.00
2013-10-15,64.6,56.5,49.3,54.0,50.7,45.9,94,81,65,30.28,30.21,4,0,8,0.00
2013-10-16,63.0,55.7,50.4,54.9,52.6,48.9,100,90,73,30.21,29.93,4,1,9,0.00
2013-10-17,74.3,62.0,52.9,58.6,56.0,52.1,100,82,57,29.94,29.74,7,1,11,0.00
2013-10-18,69.6,61.3,54.1,58.9,50.6,38.5,94,71,41,30.14,29.75,12,3,19,0.06
2013-10-19,67.3,56.4,45.5,49.1,42.6,38.3,77,61,42,30.18,29.96,5,1,11,0.00
2013-10-20,64.4,54.6,45.3,51.2,40.3,30.9,92,61,32,30.22,29.90,12,2,17,0.00
2013-10-21,68.4,53.6,40.5,49.2,40.0,34.6,85,62,34,30.32,30.20,8,1,11,0.00
2013-10-22,67.8,56.9,48.0,51.0,46.0,37.0,90,68,48,30.20,29.90,6,1,12,0.00
2013-10-23,54.3,47.5,39.2,37.6,33.9,28.6,84,60,39,30.00,29.80,3,0,6,0.00
2013-10-24,56.3,46.5,39.4,34.9,28.4,19.8,76,51,28,30.08,29.82,12,3,18,0.00
2013-10-25,51.8,42.5,35.8,33.5,28.8,24.4,79,59,39,30.35,30.08,9,1,15,0.00
2013-10-26,55.8,45.3,34.3,35.6,27.9,16.3,79,53,22,30.35,30.08,11,3,17,0.00
2013-10-27,57.6,48.3,42.1,39.6,33.9,25.5,85,59,35,30.26,30.02,11,2,15,0.07
2013-10-28,61.2,46.4,37.9,34.0,30.4,24.1,76,55,33,30.55,30.26,12,3,17,0.00
2013-10-29,50.7,38.3,31.5,33.9,27.7,21.4,88,66,52,30.65,30.55,6,0,11,0.00
2013-10-30,47.7,39.6,33.1,39.8,35.3,29.9,97,85,72,30.57,30.40,2,0,5,0.05
2013-10-31,62.8,49.1,34.5,58.2,46.2,32.8,100,90,77,30.45,30.01,9,1,15,0.15
2013-11-1,71.4,65.0,59.5,60.8,56.3,51.3,94,74,57,30.00,29.64,17,6,28,0.08
2013-11-2,70.7,56.2,50.2,52.0,45.6,39.9,85,69,36,29.93,29.80,4,0,6,0.00
2013-11-3,51.1,42.2,32.7,46.7,32.1,15.2,92,68,41,30.62,29.91,13,2,23,0.04
2013-11-4,47.3,34.1,28.2,25.3,18.7,9.1,77,54,24,30.91,30.62,11,1,17,0.00
2013-11-5,51.6,39.2,27.5,36.3,27.4,18.4,77,63,44,30.92,30.72,6,1,12,0.00
2013-11-6,61.5,51.3,41.4,49.1,40.9,33.3,83,68,48,30.72,30.24,8,3,16,0.00
2013-11-7,66.6,54.7,42.1,57.0,49.1,33.9,92,82,64,30.24,29.87,14,3,22,0.27
2013-11-8,51.3,40.4,34.7,33.9,26.2,18.8,78,57,40,30.28,30.01,16,3,21,0.00
2013-11-9,47.7,40.1,33.1,28.8,21.1,14.0,58,47,30,30.40,30.25,10,2,17,0.00
2013-11-10,59.5,47.3,42.4,41.5,35.3,28.8,88,64,47,30.25,29.93,11,3,20,0.06
2013-11-11,54.0,46.0,39.2,31.4,25.8,16.8,62,46,26,30.30,30.03,12,4,20,0.00
2013-11-12,48.7,35.6,26.8,38.1,22.6,11.5,86,59,46,30.38,30.09,12,2,19,0.08
2013-11-13,41.4,30.2,24.3,13.9,9.5,1.8,58,43,25,30.48,30.36,10,2,17,0.00
2013-11-14,54.1,40.8,30.4,23.0,15.8,10.2,51,37,22,30.36,30.23,14,4,18,0.00
2013-11-15,61.2,47.5,30.7,33.1,20.1,7.7,69,36,16,30.40,30.30,8,2,12,0.00
2013-11-16,61.7,45.8,34.7,38.4,31.9,22.9,95,61,24,30.53,30.38,5,1,8,0.00
2013-11-17,55.2,45.4,33.1,53.4,42.3,31.3,100,89,65,30.52,30.06,5,1,8,0.04
2013-11-18,68.2,59.0,48.6,61.5,46.0,30.3,100,66,37,30.06,29.73,14,4,21,0.25
2013-11-19,48.9,40.0,31.5,30.4,19.4,12.0,54,44,26,30.47,29.85,14,4,27,0.00
2013-11-20,45.5,33.6,27.0,14.8,10.2,1.6,55,39,20,30.83,30.47,9,2,15,0.00
2013-11-21,50.4,37.0,23.9,28.9,16.2,8.7,61,44,23,30.84,30.58,6,1,11,0.00
2013-11-22,45.5,42.7,40.8,44.7,39.4,28.6,100,89,61,30.58,30.01,4,1,6,0.22
2013-11-23,49.8,40.7,30.0,46.6,24.4,1.2,100,56,21,30.09,29.97,16,5,28,0.01
2013-11-24,30.4,25.1,22.1,13.3,-3.0,-10.1,62,30,19,30.37,29.97,14,5,29,0.19
2013-11-25,35.8,27.4,22.1,13.4,-4.1,-10.8,46,25,18,30.56,30.36,11,3,21,0.00
2013-11-26,45.0,36.8,30.4,44.2,21.9,9.7,97,57,36,30.54,30.25,10,2,13,0.13
2013-11-27,60.6,51.2,38.5,60.5,49.9,32.0,100,95,76,30.25,29.40,17,5,30,1.81
2013-11-28,38.7,32.0,25.7,32.9,10.4,-7.1,80,43,21,30.63,29.62,22,7,32,0.05
2013-11-29,36.0,27.8,24.3,12.6,1.4,-7.4,56,33,21,30.95,30.63,10,2,16,0.00
2013-11-30,37.9,29.8,26.2,24.2,5.4,-7.3,66,37,22,30.99,30.64,12,1,15,0.00
2013-12-1,46.2,40.3,36.3,41.7,34.7,24.2,100,81,61,30.64,30.21,11,2,18,0.27
2013-12-2,40.6,37.5,35.6,38.8,35.7,34.0,97,93,89,30.21,30.12,6,1,10,0.00
2013-12-3,50.4,38.8,34.5,38.4,33.0,26.9,94,80,58,30.14,30.04,7,1,11,0.01
2013-12-4,45.9,36.5,31.5,27.8,25.7,22.5,82,66,44,30.40,30.14,8,1,14,0.00
2013-12-5,52.7,43.2,30.4,52.7,39.6,26.2,100,87,74,30.42,30.11,8,1,10,0.00
2013-12-6,55.4,48.8,43.0,53.6,43.2,30.9,100,82,58,30.26,30.05,8,1,14,0.05
2013-12-7,43.0,43.0,43.0,32.0,32.0,32.0,65,65,65,30.26,30.26,0,0,6,0.00
2013-12-8,43.0,43.0,43.0,32.0,32.0,32.0,65,65,65,30.26,30.26,0,0,6,0.00
2013-12-9,43.0,39.7,33.6,40.8,34.8,31.9,100,84,65,30.26,29.55,6,1,16,0.41
2013-12-10,36.0,32.0,25.7,32.1,25.1,6.1,94,77,41,29.68,29.46,16,4,21,0.02
2013-12-11,34.9,27.3,24.3,14.3,11.2,6.9,59,50,36,29.89,29.68,14,5,18,0.00
2013-12-12,29.3,24.8,23.2,12.7,0.2,-10.6,58,37,20,29.95,29.75,11,1,20,0.00
2013-12-13,30.6,24.3,23.2,14.9,0.3,-9.9,67,39,22,30.09,29.67,16,1,22,0.00
2013-12-14,24.1,11.6,0.0,14.8,14.8,14.8,67,34,10,30.30,29.85,1,0,2,0.00
2013-12-15,38.8,29.0,0.0,37.6,24.9,14.8,96,82,10,29.85,29.07,17,6,31,0.72
2013-12-16,30.9,26.3,23.7,17.0,5.6,-7.1,65,44,21,29.89,29.42,19,5,24,0.00
2013-12-17,23.7,23.7,23.7,-3.8,-3.8,-3.8,29,29,29,29.98,29.62,2,2,5,0.00
2013-12-18,35.2,26.4,23.7,16.3,4.0,-3.8,56,39,29,29.78,29.54,8,3,15,0.01
2013-12-19,44.2,35.2,29.1,23.5,19.6,16.3,63,53,40,29.83,29.66,12,4,21,0.04
2013-12-20,54.5,42.8,32.5,36.5,29.5,21.4,74,60,46,29.83,29.61,10,2,12,0.00
2013-12-21,56.3,49.3,43.7,46.3,39.8,30.6,86,70,56,29.67,29.56,8,2,12,0.00
2013-12-22,50.2,39.0,34.3,46.7,37.3,32.5,100,93,81,29.75,29.51,12,2,20,0.02
2013-12-23,73.4,33.7,31.5,34.9,32.2,30.5,96,94,93,30.22,29.36,7,1,11,0.58
2013-12-24,37.2,32.2,26.8,35.0,19.0,6.3,93,59,41,30.11,29.97,8,1,16,0.00
2013-12-25,26.8,26.4,16.9,6.3,6.1,1.1,52,41,41,30.11,29.93,2,2,8,0.00
2013-12-26,37.4,27.7,17.6,35.0,21.1,3.0,100,76,52,29.93,29.50,6,1,12,0.01
2013-12-27,37.6,29.2,23.5,22.3,18.2,15.6,83,64,45,29.69,29.61,9,2,13,0.02
2013-12-28,50.7,36.7,27.7,26.9,23.0,17.5,74,58,35,29.64,29.41,7,2,11,0.00
2013-12-29,42.3,37.6,30.6,40.7,31.7,22.9,100,80,59,29.46,28.81,4,0,9,1.13
2013-12-30,46.0,33.8,17.6,35.4,23.3,2.1,100,68,36,29.59,28.92,9,2,15,0.00
2013-12-31,29.8,19.3,12.4,11.8,-2.1,-11.9,62,40,18,29.60,29.46,8,1,12,0.00
2014-1-1,33.4,22.4,16.9,6.2,1.2,-7.1,53,40,22,29.82,29.60,8,2,14,0.00
2014-1-2,22.6,16.8,1.9,19.5,11.0,-5.1,89,78,51,29.80,29.28,8,1,14,0.00